Date String (YYYY-MM-DD hh:mm:ss) UTC,Instrument flags,Ambient pressure (hPa),Sample flow (lpm),Bypass flow (lpm),Sample temperature (°C),Ambient temperature (°C),ASC tube jacket temperature (°C),LED temperature (°C),Box temperature (°C),Sample RH (%),Span deviation,Mass concentration (μg/m³),Mass concentration (μg/m³),Mass concentration (μg/m³)
DateTimeUTC,F1_M11,P_M11,Q1_M11,Q2_M11,T1_M11,T2_M11,T3_M11,T4_M11,T5_M11,U1_M11,ZSPAN_M11,X0_M11,X2_M11,X1_M11
2021-12-01 14:00:00,,0828.4,4.98,0.00,26.2,25.2,00.0,35.1,27.9,10.3,0000.0,0011.66,0003.93,0002.57
2021-12-01 14:01:00,,0828.2,5.01,0.00,26.2,25.3,00.0,35.1,27.9,10.3,0000.0,0012.03,0003.89,0002.49
2021-12-01 14:02:00,,0828.2,4.99,0.00,26.2,25.2,00.0,35.1,28.0,10.2,0000.0,0011.85,0003.84,0002.41
2021-12-01 14:03:00,,0828.2,5.01,0.00,26.2,25.2,00.0,35.1,28.0,10.1,0000.0,0011.00,0003.77,0002.34
2021-12-01 14:04:00,,0828.3,4.98,0.00,26.2,25.2,00.0,35.1,28.0,10.1,0000.0,0010.75,0003.74,0002.29
2021-12-01 14:05:00,,0828.2,5.02,0.00,26.2,25.2,00.0,35.1,28.0,10.1,0000.0,0010.16,0003.61,0002.13
2021-12-01 14:06:00,,0828.2,4.99,0.00,26.2,25.2,00.0,35.1,28.0,10.1,0000.0,0009.36,0003.44,0001.94
2021-12-01 14:07:00,,0828.1,5.00,0.00,26.2,25.2,00.0,35.1,28.0,10.0,0000.0,0009.12,0003.40,0001.86
2021-12-01 14:08:00,,0828.1,5.01,0.00,26.2,25.3,00.0,35.1,27.9,10.0,0000.0,0009.21,0003.35,0001.76
2021-12-01 14:09:00,,0828.1,4.99,0.00,26.2,25.2,00.0,35.1,28.0,10.0,0000.0,0010.59,0003.26,0001.66
2021-12-01 14:10:00,,0828.2,5.00,0.00,26.2,25.2,00.0,35.1,27.9,10.0,0000.0,0011.03,0003.16,0001.54
2021-12-01 14:11:00,,0828.2,4.99,0.00,26.2,25.3,00.0,35.1,27.9,10.0,0000.0,0010.98,0003.05,0001.48
2021-12-01 14:12:00,,0828.2,5.00,0.00,26.2,25.3,00.0,35.1,27.9,10.0,0000.0,0010.31,0002.98,0001.42
2021-12-01 14:13:00,,0828.1,5.00,0.00,26.2,25.2,00.0,35.1,28.0,10.0,0000.0,0009.71,0002.83,0001.35
2021-12-01 14:14:00,,0828.1,4.99,0.00,26.2,25.2,00.0,35.1,28.0,10.0,0000.0,0009.53,0002.79,0001.31
2021-12-01 14:15:00,,0828.3,5.01,0.00,26.2,25.3,00.0,35.1,28.0,10.0,0000.0,0009.90,0002.70,0001.28
2021-12-01 14:16:00,,0828.1,4.99,0.00,26.2,25.2,00.0,35.1,28.0,10.0,0000.0,0009.98,0002.58,0001.25
2021-12-01 14:17:00,,0828.2,4.99,0.00,26.2,25.2,00.0,35.1,28.0,10.0,0000.0,0009.97,0002.52,0001.21
2021-12-01 14:18:00,,0828.2,5.01,0.00,26.2,25.2,00.0,35.1,28.0,10.1,0000.0,0010.32,0002.45,0001.21
2021-12-01 14:19:00,,0828.2,5.00,0.00,26.2,25.2,00.0,35.1,28.0,10.1,0000.0,0010.33,0002.42,0001.22
2021-12-01 14:20:00,,0828.2,5.00,0.00,26.2,25.2,00.0,35.1,28.0,10.1,0000.0,0009.00,0002.45,0001.24
2021-12-01 14:21:00,,0828.2,5.00,0.00,26.2,25.2,00.0,35.1,28.0,10.1,0000.0,0008.04,0002.41,0001.26
2021-12-01 14:22:00,,0828.2,5.00,0.00,26.2,25.2,00.0,35.1,28.0,10.0,0000.0,0008.05,0002.35,0001.26
2021-12-01 14:23:00,,0828.1,4.99,0.00,26.2,25.2,00.0,35.1,28.0,10.0,0000.0,0008.38,0002.36,0001.26
2021-12-01 14:24:00,,0828.1,5.00,0.00,26.2,25.2,00.0,35.1,28.0,10.0,0000.0,0008.60,0002.37,0001.26
2021-12-01 14:25:00,,0828.1,5.01,0.00,26.2,25.2,00.0,35.1,28.0,10.1,0000.0,0008.71,0002.35,0001.26
2021-12-01 14:26:00,,0828.2,4.98,0.00,26.1,25.2,00.0,35.1,27.9,10.1,0000.0,0009.45,0002.33,0001.26
2021-12-01 14:27:00,,0828.2,5.01,0.00,26.1,25.2,00.0,35.1,27.9,10.1,0000.0,0009.37,0002.33,0001.24
2021-12-01 14:28:00,,0828.2,5.00,0.00,26.1,25.2,00.0,35.1,27.9,10.1,0000.0,0010.14,0002.37,0001.23
2021-12-01 14:29:00,,0828.2,4.99,0.00,26.1,25.2,00.0,35.1,27.9,10.1,0000.0,0009.79,0002.43,0001.24
2021-12-01 14:30:00,,0828.2,5.01,0.00,26.1,25.2,00.0,35.1,27.9,10.1,0000.0,0009.52,0002.47,0001.23
2021-12-01 14:31:00,,0828.2,5.01,0.00,26.2,25.2,00.0,35.1,27.9,10.1,0000.0,0009.42,0002.40,0001.22
2021-12-01 14:32:00,,0828.3,4.99,0.00,26.2,25.2,00.0,35.1,27.9,10.1,0000.0,0009.62,0002.44,0001.20
2021-12-01 14:33:00,,0828.3,5.00,0.00,26.2,25.2,00.0,35.1,27.9,10.1,0000.0,0009.90,0002.52,0001.19
2021-12-01 14:34:00,,0828.3,5.02,0.00,26.2,25.2,00.0,35.1,28.0,10.1,0000.0,0009.47,0002.53,0001.20
2021-12-01 14:35:00,,0828.3,5.00,0.00,26.2,25.2,00.0,35.1,28.0,10.1,0000.0,0009.25,0002.53,0001.20
2021-12-01 14:36:00,,0828.3,5.00,0.00,26.2,25.2,00.0,35.1,28.0,10.1,0000.0,0009.85,0002.55,0001.20
2021-12-01 14:37:00,,0828.3,5.01,0.00,26.2,25.3,00.0,35.1,27.9,10.1,0000.0,0009.15,0002.58,0001.21
2021-12-01 14:38:00,,0828.4,5.00,0.00,26.2,25.3,00.0,35.1,27.9,10.1,0000.0,0009.22,0002.64,0001.24
2021-12-01 14:39:00,,0828.4,5.00,0.00,26.2,25.3,00.0,35.1,28.0,10.2,0000.0,0009.11,0002.63,0001.26
2021-12-01 14:40:00,,0828.4,5.00,0.00,26.2,25.3,00.0,35.1,28.0,10.2,0000.0,0009.03,0002.64,0001.27
2021-12-01 14:41:00,,0828.4,4.99,0.00,26.2,25.3,00.0,35.1,27.9,10.1,0000.0,0009.12,0002.66,0001.28
2021-12-01 14:42:00,,0828.4,5.01,0.00,26.2,25.3,00.0,35.1,28.0,10.1,0000.0,0009.81,0002.73,0001.28
2021-12-01 14:43:00,,0828.4,5.00,0.00,26.2,25.3,00.0,35.1,28.0,10.1,0000.0,0010.29,0002.74,0001.30
2021-12-01 14:44:00,,0828.4,4.99,0.00,26.2,25.3,00.0,35.1,28.0,10.1,0000.0,0010.86,0002.69,0001.32
2021-12-01 14:45:00,,0828.4,5.00,0.00,26.2,25.3,00.0,35.1,28.0,10.1,0000.0,0010.77,0002.63,0001.34
2021-12-01 14:46:00,,0828.5,5.01,0.00,26.2,25.3,00.0,35.1,28.0,10.1,0000.0,0011.28,0002.67,0001.35
2021-12-01 14:47:00,,0828.4,4.99,0.00,26.2,25.3,00.0,35.1,28.0,10.1,0000.0,0012.04,0002.78,0001.40
2021-12-01 14:48:00,,0828.5,5.01,0.00,26.2,25.3,00.0,35.1,28.0,10.1,0000.0,0012.14,0002.79,0001.44
2021-12-01 14:49:00,,0828.5,5.00,0.00,26.2,25.3,00.0,35.1,28.0,10.1,0000.0,0012.13,0002.86,0001.45
2021-12-01 14:50:00,,0828.5,4.99,0.00,26.2,25.3,00.0,35.1,28.0,10.1,0000.0,0012.38,0002.93,0001.47
2021-12-01 14:51:00,,0828.5,5.00,0.00,26.2,25.3,00.0,35.1,28.0,10.1,0000.0,0012.94,0003.05,0001.49
2021-12-01 14:52:00,,0828.5,5.00,0.00,26.2,25.3,00.0,35.1,28.0,10.1,0000.0,0012.97,0003.03,0001.54
2021-12-01 14:53:00,,0828.5,5.01,0.00,26.2,25.3,00.0,35.1,28.0,10.2,0000.0,0012.54,0003.05,0001.57
2021-12-01 14:54:00,,0828.4,4.99,0.00,26.2,25.3,00.0,35.1,28.0,10.2,0000.0,0012.20,0003.12,0001.59
2021-12-01 14:55:00,,0828.8,5.00,0.00,26.2,25.3,00.0,35.1,28.0,10.2,0000.0,0012.05,0003.18,0001.63
2021-12-01 14:56:00,,0828.6,5.01,0.00,26.2,25.3,00.0,35.1,28.0,10.2,0000.0,0012.05,0003.20,0001.66
2021-12-01 14:57:00,,0828.5,5.00,0.00,26.2,25.3,00.0,35.1,28.0,10.3,0000.0,0011.46,0003.19,0001.67
2021-12-01 14:58:00,,0828.5,4.99,0.00,26.2,25.3,00.0,35.1,28.0,10.4,0000.0,0010.53,0003.17,0001.64
2021-12-01 14:59:00,,0828.5,5.00,0.00,26.2,25.3,00.0,35.1,28.0,10.4,0000.0,0011.12,0003.22,0001.66
